VE6EN Weather Reports


Display with metric or nautical units.
time (UTC)temp
F
wind
direction
speed
MPH
gust
MPH
rain 1hr
in
rain 24hr
in
rain mn
in
humidity
%
barometer
mb
20260503043004 55 247 0.0 3.0 0.00 0.00 0.00 32 1011.9
20260503042004 56 248 0.0 2.0 0.00 0.00 0.00 31 1011.8
20260503041004 56 248 0.0 2.0 0.00 0.00 0.00 31 1011.8
20260503040000 57 248 1.0 3.0 0.00 0.00 0.00 31 1011.7
20260503035004 57 248 1.0 3.0 0.00 0.00 0.00 31 1011.6
20260503034002 57 248 0.0 3.0 0.00 0.00 0.00 31 1011.5
20260503033006 58 248 0.0 1.0 0.00 0.00 0.00 31 1011.5
20260503032005 58 248 0.0 3.0 0.00 0.00 0.00 29 1011.4
20260503031004 59 248 0.0 3.0 0.00 0.00 0.00 29 1011.3
20260503030004 60 248 0.0 2.0 0.00 0.00 0.00 28 1011.3
20260503025002 61 248 0.0 3.0 0.00 0.00 0.00 28 1011.2
20260503024000 62 248 1.0 2.0 0.00 0.00 0.00 27 1011.1
20260503023002 62 248 2.0 5.0 0.00 0.00 0.00 26 1011.2
20260503022004 63 236 2.0 5.0 0.00 0.00 0.00 25 1011.1
20260503021002 63 241 2.0 6.0 0.00 0.00 0.00 25 1011.2
20260503020004 64 300 1.0 4.0 0.00 0.00 0.00 25 1011.3
20260503015004 65 305 2.0 6.0 0.00 0.00 0.00 23 1011.3
20260503014004 66 284 1.0 5.0 0.00 0.00 0.00 22 1011.4
20260503013000 67 238 2.0 5.0 0.00 0.00 0.00 22 1011.5
20260503012004 68 33 1.0 4.0 0.00 0.00 0.00 27 1011.4
20260503011000 68 51 1.0 4.0 0.00 0.00 0.00 29 1011.6
20260503010002 69 40 0.0 2.0 0.00 0.00 0.00 28 1011.7
20260503005004 69 40 0.0 1.0 0.00 0.00 0.00 29 1011.8
20260503004000 68 40 1.0 4.0 0.00 0.00 0.00 29 1011.9
20260503003004 68 46 0.0 3.0 0.00 0.00 0.00 31 1012.0
20260503002000 68 298 0.0 5.0 0.00 0.00 0.00 30 1012.1
20260503001004 69 298 1.0 5.0 0.00 0.00 0.00 28 1012.2
20260503000005 69 281 1.0 4.0 0.00 0.00 0.00 28 1012.2
20260502235004 69 76 1.0 5.0 0.00 0.00 0.00 31 1012.2
20260502234004 69 355 1.0 3.0 0.00 0.00 0.00 31 1012.4
20260502233005 69 42 0.0 3.0 0.00 0.00 0.00 30 1012.4
20260502232000 69 48 1.0 4.0 0.00 0.00 0.00 30 1012.7
20260502231004 68 97 1.0 3.0 0.00 0.00 0.00 32 1012.8
20260502230000 67 44 1.0 2.0 0.00 0.00 0.00 31 1013.0
20260502224959 66 44 1.0 3.0 0.00 0.00 0.00 34 1013.1
20260502224004 66 265 1.0 8.0 0.00 0.00 0.00 32 1013.3
20260502222959 67 266 2.0 6.0 0.00 0.00 0.00 31 1013.4
20260502221959 67 53 1.0 4.0 0.00 0.00 0.00 34 1013.5
20260502221002 67 42 0.0 2.0 0.00 0.00 0.00 34 1013.7
20260502220000 66 293 2.0 6.0 0.00 0.00 0.00 36 1013.8
20260502215004 67 250 1.0 5.0 0.00 0.00 0.00 34 1013.9
20260502214004 66 69 1.0 6.0 0.00 0.00 0.00 34 1014.1
20260502213003 66 61 1.0 6.0 0.00 0.00 0.00 35 1014.2
20260502212000 66 22 1.0 8.0 0.00 0.00 0.00 36 1014.4
20260502211004 65 73 1.0 4.0 0.00 0.00 0.00 38 1014.6
20260502205959 65 35 1.0 6.0 0.00 0.00 0.00 39 1014.7
20260502204959 65 30 1.0 5.0 0.00 0.00 0.00 38 1014.9
20260502204004 64 51 1.0 5.0 0.00 0.00 0.00 39 1015.1
20260502202959 64 360 1.0 4.0 0.00 0.00 0.00 38 1015.3
20260502201959 63 63 2.0 6.0 0.00 0.00 0.00 39 1015.4
20260502201004 63 38 1.0 10.0 0.00 0.00 0.00 41 1015.5
20260502195959 62 92 1.0 7.0 0.00 0.00 0.00 39 1015.7
20260502194959 61 82 1.0 6.0 0.00 0.00 0.00 40 1015.9
20260502193959 60 323 1.0 3.0 0.00 0.00 0.00 41 1016.1
20260502192959 61 327 1.0 5.0 0.00 0.00 0.00 43 1016.2
20260502191959 61 72 1.0 4.0 0.00 0.00 0.00 43 1016.3
20260502190959 61 302 1.0 6.0 0.00 0.00 0.00 41 1016.4
20260502185959 62 26 2.0 6.0 0.00 0.00 0.00 41 1016.5
20260502184959 61 69 2.0 6.0 0.00 0.00 0.00 42 1016.7
20260502183958 61 27 1.0 5.0 0.00 0.00 0.00 43 1016.7
20260502182959 61 97 1.0 4.0 0.00 0.00 0.00 43 1016.9
20260502182004 60 65 1.0 9.0 0.00 0.00 0.00 43 1017.0
20260502180958 60 43 1.0 4.0 0.00 0.00 0.00 44 1017.3
20260502163959 56 12 1.0 4.0 0.00 0.00 0.00 49 1018.0
20260502162959 56 12 1.0 7.0 0.00 0.00 0.00 52 1018.2
20260502161959 54 49 0.0 4.0 0.00 0.00 0.00 52 1018.2
20260502161002 54 51 0.0 2.0 0.00 0.00 0.00 52 1018.3
20260502151959 49 253 0.0 2.0 0.00 0.00 0.00 60 1018.5
20260502151000 48 253 0.0 0.0 0.00 0.00 0.00 64 1018.5
20260502122959 44 254 0.0 0.0 0.00 0.00 0.00 69 1018.0
20260502122000 44 254 0.0 0.0 0.00 0.00 0.00 68 1018.0
20260502120958 44 254 0.0 0.0 0.00 0.00 0.00 68 1018.0
20260502114959 45 254 0.0 0.0 0.00 0.00 0.00 67 1018.0
20260502113958 45 254 0.0 0.0 0.00 0.00 0.00 66 1018.0
20260502112958 46 254 0.0 0.0 0.00 0.00 0.00 66 1017.9
20260502111958 46 254 0.0 0.0 0.00 0.00 0.00 65 1018.0
20260502110959 46 254 0.0 2.0 0.00 0.00 0.00 66 1017.9
20260502105958 46 254 0.0 1.0 0.00 0.00 0.00 66 1018.0
20260502104959 46 253 0.0 2.0 0.00 0.00 0.00 66 1018.0
20260502103958 46 253 0.0 2.0 0.00 0.00 0.00 66 1018.0
20260502102958 47 253 0.0 0.0 0.00 0.00 0.00 65 1018.1
20260502101957 47 253 0.0 1.0 0.00 0.00 0.00 65 1018.0
20260502100958 47 253 0.0 1.0 0.00 0.00 0.00 64 1018.1
20260502090958 47 74 0.0 4.0 0.00 0.00 0.00 70 1017.9
20260502070958 46 74 0.0 1.0 0.00 0.00 0.00 69 1017.8
20260502070004 46 74 0.0 0.0 0.00 0.00 0.00 69 1017.8
20260502064958 46 74 0.0 0.0 0.00 0.00 0.00 68 1017.7
20260502064000 47 74 0.0 1.0 0.00 0.00 0.00 68 1017.7
20260502062959 47 74 0.0 1.0 0.00 0.00 0.00 68 1017.7
20260502061959 47 74 0.0 0.0 0.00 0.00 0.00 67 1017.7
20260502061000 47 74 0.0 0.0 0.00 0.00 0.00 67 1017.6
20260502060004 47 74 0.0 0.0 0.00 0.00 0.00 67 1017.6
20260502055004 47 74 0.0 0.0 0.00 0.00 0.00 67 1017.6
20260502054000 48 74 0.0 0.0 0.00 0.00 0.00 66 1017.5
20260502053005 48 74 0.0 0.0 0.00 0.00 0.00 65 1017.5
20260502052000 48 74 0.0 1.0 0.00 0.00 0.00 66 1017.2
20260502051004 48 74 0.0 2.0 0.00 0.00 0.00 66 1017.0
20260502050000 48 74 1.0 3.0 0.00 0.00 0.00 65 1016.8
20260502045003 49 76 1.0 3.0 0.00 0.00 0.00 65 1016.7
20260502044004 49 61 1.0 4.0 0.00 0.00 0.00 65 1016.6